Location: ??
(35.5052°N, 139.7262°E)
Time: 18:15:00
(UTC+00:00)

Cosmos 2150 Rocket - Pass Details

Date: 20 June 2021
Orbit: 749 x 808 km, 74.0° (Epoch: 30 July)

Event Time Altitude Azimuth Distance (km) Brightness Sun altitude
Rises 17:45:30 0° 334° (NNW) 3,222 7.5 -16.9°
Reaches altitude 10° 17:47:57 10° 328° (NNW) 2,301 6.6 -16.6°
Maximum altitude 17:52:51 42° 258° (WSW) 1,087 4.4 -15.9°
Enters shadow 17:56:00 20° 198° (SSW) 1,709 5.3 -15.4°
